User: anonymous   Login
Location: Castro Valley
(37.6940°N, 122.0850°W)
Time: 16:12:34
(UTC-07:00)
Language:

PANSAT - Orbit

View from above orbital plane
View from above orbital plane
View from above satellite
View from above satellite

Ground track
Ground track

The orbit data is extracted from the following two-line orbital elements,

1 25520U 98064B   16237.21035931  .00001172  00000-0  34006-4 0  9992
2 25520  28.4558 206.3329 0005039 311.7037  48.3127 15.27834065988812
Epoch (UTC): 24 August 2016 05:02:55
Eccentricity: 0.0005039
inclination: 28.4558°
perigee height: 479 km
apogee height: 486 km
right ascension of ascending node: 206.3329°
argument of perigee: 311.7037°
revolutions per day: 15.27834065
mean anomaly at epoch: 48.3127°
orbit number at epoch: 98881

The dashed part of the orbit path shows where the satellite is in the earth's shadow,  

DLR